Total_Precipitation_Accumulation
1.25 1.03 0.55 0.65 0.91 0.44 0.57 0.77 0.78 0.52 0.48 0.46 0.52 0.62 0.46 0.25 0.08 0.05 0.02 0.02 0.03 0.03 0.02 0.15 0.21 0.21 0.30 0.28 0.48 0.68 0.71 0.23 0.13 0.07 0.06 0.06 0.05 0.02 0.00 0.00 0.00 0.00 0.01 0.00 0.01 0.01 0.00 0.00 0.00 0.00 0.00 0.00 0.00 0.00 0.00 0.00 0.00 0.00 0.00 0.00 0.01 0.01 0.00 0.00 0.00 0.00 0.00 0.00 0.00 0.00 0.00 0.00 0.00 0.00 0.00 0.00 0.00 0.00 0.00 0.00 0.00 0.00 0.01 0.00 0.00
1.05 0.84 0.69 0.52 0.74 0.39 0.44 0.47 0.53 0.51 0.35 0.31 1.01 0.70 0.38 0.18 0.16 0.07 0.02 0.02 0.02 0.01 0.05 0.11 0.09 0.18 0.36 0.42 0.92 1.04 0.34 0.85 0.12 0.26 0.11 0.08 0.04 0.03 0.00 0.00 0.00 0.00 0.00 0.01 0.02 0.01 0.00 0.00 0.00 0.00 0.00 0.00 0.00 0.00 0.01 0.00 0.00 0.00 0.00 0.01 0.00 0.01 0.00 0.00 0.00 0.00 0.00 0.00 0.00 0.00 0.00 0.00 0.00 0.00 0.00 0.00 0.00 0.00 0.00 0.01 0.01 0.01 0.01 0.00 0.00
0.99 0.69 0.51 0.62 0.87 0.82 0.57 0.42 0.42 0.41 0.54 0.56 0.54 0.54 0.42 0.35 0.29 0.07 0.06 0.04 0.07 0.02 0.02 0.19 0.15 0.32 0.46 0.17 0.83 1.07 0.90 1.21 0.86 0.62 0.50 0.22 0.09 0.06 0.05 0.00 0.00 0.00 0.00 0.00 0.00 0.00 0.00 0.00 0.00 0.00 0.00 0.00 0.01 0.00 0.00 0.00 0.00 0.00 0.00 0.00 0.00 0.00 0.01 0.00 0.00 0.00 0.00 0.00 0.00 0.00 0.00 0.00 0.00 0.00 0.00 0.00 0.00 0.00 0.00 0.00 0.01 0.01 0.01 0.01 0.01
1.10 0.88 0.82 0.53 0.93 0.94 0.77 0.61 0.60 0.75 0.72 0.90 0.78 0.41 0.37 0.24 0.20 0.08 0.20 0.26 0.21 0.06 0.02 0.06 0.09 0.33 0.27 0.95 0.96 1.28 0.88 0.78 0.70 0.92 0.92 0.38 0.18 0.09 0.09 0.07 0.00 0.00 0.00 0.00 0.00 0.00 0.01 0.01 0.01 0.01 0.01 0.01 0.01 0.00 0.00 0.00 0.00 0.00 0.01 0.04 0.00 0.00 0.00 0.02 0.00 0.00 0.00 0.00 0.00 0.00 0.00 0.00 0.00 0.00 0.00 0.00 0.00 0.00 0.00 0.00 0.00 0.00 0.00 0.00 0.00
0.87 0.71 0.74 0.70 0.62 0.99 0.72 0.81 0.57 0.81 0.75 0.53 0.35 0.32 0.26 0.09 0.05 0.08 0.29 0.33 0.29 0.24 0.10 0.13 0.06 0.21 0.21 0.70 0.45 0.47 0.67 1.03 0.79 1.24 1.23 0.42 0.45 0.25 0.15 0.08 0.14 0.00 0.00 0.00 0.00 0.00 0.00 0.00 0.00 0.01 0.02 0.02 0.00 0.00 0.00 0.00 0.00 0.00 0.00 0.02 0.00 0.00 0.00 0.02 0.01 0.00 0.00 0.00 0.00 0.00 0.00 0.00 0.00 0.00 0.00 0.00 0.00 0.00 0.00 0.00 0.00 0.00 0.00 0.01 0.01
1.44 1.40 1.05 1.11 0.75 0.67 1.06 0.92 0.72 1.03 0.84 0.48 0.74 0.37 0.23 0.35 0.11 0.08 0.32 0.46 0.59 0.26 0.29 0.19 0.26 0.24 0.56 0.64 0.85 0.67 0.87 0.47 0.78 0.87 0.79 1.02 0.73 0.52 0.39 0.27 0.14 0.17 0.07 0.00 0.00 0.00 0.00 0.00 0.01 0.01 0.00 0.00 0.00 0.00 0.00 0.00 0.00 0.00 0.00 0.01 0.01 0.00 0.00 0.01 0.01 0.01 0.00 0.00 0.00 0.00 0.00 0.00 0.00 0.00 0.00 0.00 0.00 0.00 0.00 0.00 0.00 0.00 0.00 0.00 0.00
1.22 0.83 1.01 0.60 0.59 0.99 1.24 0.81 0.96 0.81 1.07 0.91 0.54 0.58 0.55 0.40 0.21 0.25 0.32 0.64 0.53 0.38 0.30 0.86 0.38 0.54 0.58 0.78 1.18 1.03 0.54 1.28 0.80 0.59 0.38 0.51 0.40 0.70 0.53 0.30 0.16 0.18 0.13 0.11 0.00 0.00 0.00 0.00 0.04 0.01 0.01 0.01 0.03 0.04 0.01 0.01 0.00 0.00 0.00 0.00 0.03 0.01 0.00 0.01 0.01 0.01 0.01 0.00 0.00 0.00 0.00 0.00 0.00 0.00 0.00 0.00 0.00 0.00 0.00 0.00 0.00 0.00 0.00 0.00 0.00
0.95 1.46 0.68 0.64 0.59 0.70 1.01 1.12 0.66 0.75 1.11 1.35 0.67 1.04 0.72 0.86 0.71 0.47 0.31 0.68 0.80 0.84 0.72 0.74 0.50 0.56 0.95 0.73 0.78 0.51 1.09 1.21 1.26 0.95 0.40 0.44 0.68 0.70 0.64 0.50 0.68 0.42 0.15 0.20 0.21 0.11 0.00 0.00 0.01 0.02 0.03 0.03 0.06 0.07 0.06 0.05 0.06 0.04 0.05 0.03 0.01 0.01 0.01 0.01 0.05 0.03 0.01 0.00 0.00 0.00 0.00 0.00 0.00 0.00 0.00 0.00 0.00 0.00 0.00 0.00 0.01 0.00 0.00 0.00 0.00
1.29 1.12 0.86 0.76 0.45 0.51 0.74 1.19 0.94 0.68 1.13 0.67 0.80 0.62 0.87 0.53 0.54 0.47 0.62 0.74 0.77 0.63 1.05 1.33 0.72 0.94 1.01 1.24 1.16 1.12 0.95 1.32 1.06 0.97 1.14 0.77 1.29 1.29 0.78 0.95 1.02 0.45 0.51 0.29 0.29 0.33 0.06 0.01 0.01 0.01 0.01 0.03 0.05 0.06 0.15 0.22 0.20 0.28 0.20 0.17 0.25 0.16 0.03 0.05 0.04 0.07 0.09 0.08 0.03 0.02 0.02 0.01 0.03 0.04 0.00 0.00 0.00 0.00 0.00 0.00 0.00 0.00 0.00 0.01 0.01
0.66 0.71 1.09 0.63 0.72 0.93 0.74 2.24 1.52 0.94 0.77 0.82 0.66 0.64 0.97 0.67 0.49 0.50 0.59 0.70 0.66 0.92 1.03 0.97 1.22 1.13 1.52 1.80 1.66 1.56 1.32 1.35 1.27 0.84 1.24 1.18 1.56 1.55 1.26 0.89 0.48 0.73 0.58 0.44 0.50 0.34 0.32 0.16 0.01 0.00 0.00 0.01 0.03 0.18 0.39 0.62 0.79 0.65 0.59 0.40 0.46 0.38 0.39 0.68 0.58 0.15 0.11 0.22 0.22 0.08 0.03 0.03 0.07 0.10 0.13 0.09 0.07 0.01 0.01 0.01 0.01 0.00 0.00 0.01 0.01
0.59 0.65 0.60 0.77 0.68 0.64 0.70 0.94 1.18 1.06 1.07 1.02 1.30 0.83 0.76 0.59 0.61 0.41 0.53 0.65 0.61 0.75 0.90 1.31 1.24 1.57 1.48 1.20 1.60 1.23 1.06 1.23 0.92 0.83 1.12 1.11 2.23 1.47 1.07 0.92 0.87 0.72 0.67 0.77 0.44 0.41 0.38 0.44 0.59 0.51 0.25 0.01 0.12 0.24 0.48 0.85 0.73 0.87 0.87 1.07 0.80 0.84 0.76 0.56 0.66 0.19 0.20 0.33 0.34 0.16 0.05 0.03 0.03 0.06 0.03 0.07 0.07 0.07 0.04 0.02 0.03 0.01 0.01 0.01 0.02
0.25 0.58 0.53 0.86 0.51 0.84 0.50 0.51 1.15 1.16 1.34 0.93 0.78 0.94 0.93 1.01 0.72 0.85 0.71 0.66 0.56 1.12 0.83 0.66 1.04 1.21 1.52 0.76 0.73 0.76 1.25 1.12 0.99 1.22 1.20 1.38 1.54 1.52 1.39 1.21 1.34 1.09 0.81 0.89 0.66 0.98 0.58 0.58 0.54 0.62 0.22 0.16 0.14 0.15 0.16 0.23 0.12 0.61 0.89 0.75 1.05 0.95 0.59 0.64 0.66 0.34 0.50 0.24 0.24 0.15 0.08 0.17 0.07 0.06 0.07 0.10 0.14 0.13 0.10 0.08 0.03 0.03 0.02 0.02 0.03
1.11 1.14 0.83 0.56 0.48 0.78 0.57 0.57 0.58 0.49 0.74 0.95 0.88 1.03 1.50 1.09 1.07 1.13 0.90 1.19 0.83 0.51 0.83 0.85 0.69 0.77 1.03 0.60 0.56 0.66 1.05 1.31 1.35 1.72 1.78 2.15 1.86 2.04 1.27 1.03 1.09 1.00 1.35 1.28 1.02 0.76 1.10 1.09 0.49 0.66 0.63 0.45 0.20 0.03 0.01 0.03 0.06 0.23 0.43 0.63 1.18 1.47 1.03 0.66 0.78 0.59 0.37 0.44 0.40 0.33 0.28 0.21 0.18 0.14 0.07 0.11 0.15 0.14 0.18 0.20 0.10 0.09 0.05 0.04 0.09
0.88 0.61 0.45 0.61 0.74 0.43 0.48 0.58 0.90 0.77 0.88 0.70 0.63 0.95 0.91 0.65 0.81 0.94 0.90 0.99 0.68 0.53 0.72 0.40 0.75 0.68 0.67 0.54 0.63 0.60 1.10 1.01 1.06 1.26 1.39 1.00 1.27 1.75 1.78 1.21 1.41 0.80 0.67 0.86 1.27 1.06 1.18 0.96 0.82 0.74 0.51 0.63 0.75 0.40 0.59 0.34 0.05 0.13 0.22 0.66 0.75 1.07 1.04 0.96 0.88 0.57 0.43 0.35 0.33 0.20 0.21 0.13 0.27 0.19 0.15 0.16 0.21 0.17 0.12 0.11 0.08 0.07 0.09 0.06 0.04
0.56 0.77 0.65 0.59 0.74 0.50 0.45 1.31 1.11 0.74 0.82 0.85 0.70 1.02 0.85 0.83 0.81 0.42 0.70 0.67 0.79 0.93 1.01 0.51 1.01 1.34 1.19 0.86 0.58 0.87 0.92 0.82 0.80 0.90 1.08 1.19 1.35 1.24 1.40 1.51 1.45 1.16 1.05 1.06 1.04 1.03 1.07 1.26 1.34 1.33 0.56 0.63 0.68 0.40 0.33 0.25 0.28 0.02 0.12 0.21 0.41 0.71 0.76 0.73 0.51 0.51 0.37 0.42 0.43 0.32 0.29 0.23 0.19 0.21 0.27 0.46 0.44 0.18 0.19 0.16 0.22 0.09 0.03 0.04 0.04
0.46 0.65 0.33 0.54 0.71 0.74 0.77 1.07 1.63 0.90 0.82 0.83 0.76 0.73 0.59 0.66 0.78 0.62 1.32 0.91 0.30 0.50 1.13 1.99 1.28 0.99 0.82 1.02 1.33 0.54 0.78 0.97 0.87 0.92 0.89 0.73 0.70 1.27 1.34 1.99 1.44 1.33 1.35 1.15 1.16 1.08 0.98 0.49 0.86 0.51 0.37 0.38 0.36 0.52 0.62 0.93 0.09 0.02 0.02 0.02 0.06 0.23 0.55 0.40 0.39 0.40 0.35 0.34 0.34 0.49 0.27 0.28 0.23 0.13 0.18 0.15 0.24 0.53 0.54 0.22 0.16 0.11 0.14 0.08 0.13
0.58 0.74 0.57 0.43 0.46 0.62 0.72 0.58 1.09 0.91 0.77 0.70 0.52 0.53 0.54 0.63 1.10 0.83 0.31 0.42 0.66 1.51 1.24 1.21 1.66 0.88 0.90 0.88 0.79 0.58 0.75 0.81 0.41 0.84 1.00 0.81 0.76 0.45 0.88 1.13 1.15 1.05 0.81 0.62 0.54 0.49 0.47 0.91 0.80 0.39 0.35 0.35 0.41 0.78 0.74 0.40 0.27 0.23 0.07 0.02 0.01 0.05 0.07 0.19 0.28 0.34 0.27 0.27 0.28 0.46 0.76 0.48 0.09 0.11 0.15 0.09 0.06 0.25 0.25 0.50 0.48 0.22 0.17 0.54 0.16
0.23 0.53 0.92 0.22 0.27 0.45 0.69 0.57 1.30 0.88 0.72 0.76 0.73 0.99 0.86 0.71 0.56 1.00 0.41 0.40 0.35 0.85 0.73 0.90 0.78 0.84 0.83 1.04 1.81 1.62 0.81 0.71 0.45 0.79 0.53 0.61 0.62 0.97 0.65 0.66 0.46 0.45 0.48 0.33 0.32 0.29 0.16 0.09 0.15 0.25 0.34 0.32 0.56 0.39 0.45 0.34 0.32 0.34 0.25 0.09 0.02 0.02 0.41 0.23 0.08 0.24 0.27 0.20 0.41 0.38 0.54 0.45 0.42 0.18 0.06 0.07 0.11 0.10 0.17 0.15 0.16 0.52 0.29 0.41 0.12
0.36 0.24 0.48 0.29 0.32 0.51 0.70 0.85 1.01 0.81 0.88 1.16 0.94 0.43 0.61 0.69 0.44 0.59 0.68 0.72 0.88 0.82 0.93 1.45 0.74 0.59 0.89 1.14 1.17 0.60 0.71 0.33 0.94 0.58 0.51 0.57 0.74 0.74 0.73 0.79 0.65 0.32 0.30 0.22 0.17 0.09 0.07 0.22 0.18 0.46 0.31 0.44 0.28 0.30 0.25 0.35 0.17 0.14 0.06 0.07 0.16 0.06 0.15 0.12 0.12 0.11 0.14 0.27 0.33 0.29 0.42 0.29 0.27 0.32 0.12 0.10 0.08 0.05 0.06 0.17 0.20 0.18 0.22 0.36 0.73
0.32 0.27 0.46 0.54 0.42 0.55 0.70 0.97 1.01 1.06 0.68 0.59 0.92 0.84 0.57 1.20 0.91 1.07 1.23 0.86 0.63 0.78 0.80 0.80 0.53 0.92 1.23 0.91 0.65 0.63 0.80 0.58 1.03 0.78 0.38 0.34 0.31 0.36 0.66 1.16 0.51 0.36 0.21 0.17 0.21 0.78 0.40 0.35 0.37 0.35 0.18 0.24 0.28 0.37 0.38 0.29 0.38 0.23 0.17 0.18 0.18 0.20 0.25 0.12 0.25 0.37 0.34 0.47 0.44 0.38 0.46 0.37 0.49 0.32 0.24 0.58 0.22 0.08 0.05 0.16 0.32 0.42 0.52 0.28 0.16
0.47 0.63 1.03 1.07 0.65 0.54 0.66 1.01 1.26 1.13 0.44 0.66 1.00 0.88 0.70 0.65 0.64 0.65 0.67 0.81 1.24 0.72 0.66 0.56 0.50 0.82 0.50 0.72 0.37 0.32 0.51 0.39 0.60 0.81 1.02 0.25 0.23 0.23 0.35 0.39 0.32 0.32 0.21 0.12 0.18 0.12 0.17 0.09 0.10 0.14 0.18 0.17 0.05 0.14 0.16 0.19 0.21 0.17 0.08 0.08 0.07 0.05 0.05 0.05 0.11 0.11 0.05 0.82 0.67 0.24 0.48 0.46 0.74 0.45 0.53 0.61 1.18 0.40 0.42 0.32 0.49 0.33 0.64 0.61 0.66
0.67 1.04 1.34 0.53 0.65 0.90 1.26 1.48 1.32 0.66 0.78 0.74 0.69 0.46 0.76 0.77 0.72 0.63 0.84 1.38 1.02 0.88 0.70 0.72 0.54 0.71 0.74 0.64 0.57 0.42 0.44 0.70 0.60 0.64 0.56 0.33 0.48 0.12 0.16 0.20 0.31 0.27 0.14 0.08 0.19 0.05 0.04 0.06 0.05 0.09 0.04 0.04 0.09 0.16 0.18 0.10 0.09 0.16 0.15 0.05 0.07 0.09 0.12 0.14 0.13 0.31 0.22 0.46 0.55 1.10 0.40 0.86 0.77 0.48 0.56 0.51 0.41 0.62 0.88 0.53 0.33 1.00 0.65 0.72 0.59
0.55 0.86 0.77 1.00 0.74 0.48 0.60 1.18 1.55 1.28 1.45 1.46 0.87 0.45 0.51 0.58 0.62 0.70 0.76 1.28 0.92 0.77 0.73 0.71 0.66 0.39 0.40 0.45 0.51 0.55 0.87 0.84 0.37 0.51 0.87 0.44 0.33 0.35 0.18 0.20 0.09 0.14 0.09 0.10 0.05 0.04 0.05 0.06 0.04 0.07 0.04 0.02 0.08 0.09 0.04 0.03 0.03 0.01 0.03 0.02 0.01 0.07 0.09 0.14 0.22 0.37 0.71 2.35 0.72 0.96 0.26 0.32 0.48 0.63 0.64 0.81 0.69 0.82 1.02 0.84 0.55 0.82 0.75 0.74 0.83
0.59 0.53 0.61 0.59 0.40 0.36 0.37 0.60 0.70 0.86 0.95 0.89 0.84 0.81 0.50 0.45 0.49 0.46 0.46 1.11 0.91 0.51 0.55 0.77 0.54 0.72 0.56 0.37 0.46 0.69 0.58 0.53 0.57 0.59 0.73 0.82 0.35 0.18 0.16 0.10 0.20 0.07 0.09 0.06 0.04 0.10 0.05 0.06 0.05 0.04 0.03 0.02 0.04 0.02 0.05 0.03 0.02 0.04 0.00 0.01 0.04 0.13 0.21 0.38 0.42 0.63 0.46 0.48 0.38 1.51 0.39 0.27 0.49 0.40 0.40 0.46 1.10 1.43 1.75 2.38 1.82 1.22 1.01 0.82 1.12
0.25 0.36 0.53 0.69 0.75 0.40 0.52 0.87 0.58 0.55 0.57 0.47 0.58 0.46 0.29 0.33 0.27 0.21 0.42 0.49 0.57 0.45 0.46 0.31 0.38 0.33 0.28 0.44 0.61 0.57 0.33 0.30 0.35 0.87 0.45 0.48 0.15 0.08 0.04 0.10 0.07 0.11 0.15 0.04 0.09 0.04 0.05 0.06 0.04 0.03 0.02 0.02 0.01 0.01 0.01 0.01 0.01 0.04 0.02 0.01 0.09 0.22 0.16 0.11 0.13 0.11 0.16 0.11 0.04 0.12 0.14 0.21 0.11 0.18 0.35 0.34 0.29 0.24 0.83 1.13 0.98 0.62 0.62 0.56 0.75
0.54 0.46 0.80 0.78 0.75 0.61 0.35 0.29 0.28 0.34 0.31 0.28 0.43 0.31 0.22 0.27 0.34 0.37 0.32 0.28 0.50 0.47 0.53 0.43 0.31 0.30 0.28 0.43 0.32 0.46 0.34 0.30 0.31 0.25 0.41 0.98 0.20 0.09 0.07 0.12 0.18 0.25 0.18 0.17 0.08 0.09 0.03 0.04 0.03 0.02 0.03 0.03 0.01 0.03 0.02 0.01 0.00 0.00 0.00 0.05 0.12 0.08 0.04 0.04 0.03 0.03 0.04 0.02 0.02 0.04 0.03 0.02 0.02 0.04 0.07 0.13 0.13 0.07 0.10 0.24 0.61 0.25 0.31 0.40 0.41
0.76 0.81 1.01 0.74 0.68 0.63 0.40 0.23 0.19 0.15 0.20 0.23 0.40 0.29 0.33 0.27 0.63 0.66 0.84 0.68 0.81 0.88 0.46 0.45 0.48 0.21 0.32 0.24 0.29 0.27 0.40 0.40 0.25 0.16 0.13 0.28 0.23 0.07 0.08 0.20 0.26 0.10 0.03 0.13 0.14 0.04 0.03 0.00 0.01 0.03 0.01 0.02 0.02 0.02 0.01 0.01 0.01 0.00 0.00 0.01 0.02 0.01 0.03 0.03 0.02 0.00 0.00 0.00 0.01 0.03 0.03 0.00 0.00 0.00 0.00 0.01 0.01 0.01 0.03 0.07 0.21 0.10 0.15 0.39 0.14
0.99 1.15 0.72 0.65 0.51 0.44 0.38 0.32 0.27 0.33 0.35 0.25 0.28 0.28 0.37 0.45 0.51 0.60 0.69 0.54 0.60 0.43 0.34 0.35 0.46 0.36 0.28 0.18 0.30 0.52 0.37 0.22 0.26 0.23 0.15 0.10 0.25 0.17 0.05 0.08 0.08 0.10 0.06 0.08 0.11 0.04 0.02 0.01 0.01 0.02 0.01 0.02 0.01 0.01 0.01 0.05 0.06 0.02 0.00 0.00 0.01 0.01 0.01 0.02 0.01 0.00 0.00 0.00 0.01 0.01 0.00 0.00 0.00 0.00 0.00 0.01 0.00 0.00 0.00 0.00 0.02 0.09 0.19 0.13 0.50
0.89 1.14 0.81 0.90 0.52 0.44 0.41 0.37 0.33 0.36 0.41 0.37 0.37 0.27 0.39 0.35 0.48 0.53 0.43 0.69 0.52 0.41 0.24 0.30 0.56 0.48 0.65 0.44 0.36 0.45 0.47 0.40 0.26 0.34 0.27 0.22 0.26 0.24 0.12 0.05 0.08 0.05 0.03 0.05 0.02 0.03 0.01 0.01 0.01 0.01 0.02 0.03 0.03 0.02 0.00 0.00 0.01 0.00 0.00 0.00 0.01 0.00 0.01 0.00 0.00 0.00 0.00 0.00 0.00 0.00 0.00 0.00 0.00 0.00 0.00 0.01 0.01 0.00 0.00 0.00 0.02 0.01 0.04 0.02 0.03
0.97 0.75 0.79 0.54 0.42 0.34 0.34 0.39 0.43 0.38 0.34 0.54 0.59 0.69 0.64 0.44 0.60 0.77 0.77 0.96 0.69 0.62 0.51 0.45 0.59 0.56 0.33 0.29 0.28 0.56 0.14 0.38 0.31 0.26 0.17 0.18 0.19 0.13 0.21 0.12 0.16 0.11 0.03 0.02 0.04 0.03 0.03 0.03 0.03 0.01 0.00 0.04 0.02 0.02 0.00 0.00 0.00 0.00 0.00 0.00 0.00 0.00 0.00 0.00 0.00 0.00 0.00 0.00 0.00 0.00 0.00 0.00 0.00 0.00 0.00 0.00 0.00 0.00 0.00 0.00 0.00 0.30 0.14 0.02 0.02
0.93 0.64 0.49 0.43 0.44 0.46 0.47 0.46 0.37 0.39 0.46 0.63 0.62 0.79 0.94 0.76 0.88 1.06 0.72 0.61 0.60 0.64 0.67 0.60 0.36 0.46 0.46 0.38 0.50 0.63 0.45 0.25 0.24 0.37 0.24 0.21 0.31 0.27 0.41 0.21 0.13 0.10 0.07 0.13 0.20 0.13 0.10 0.02 0.01 0.04 0.00 0.02 0.03 0.01 0.00 0.01 0.00 0.00 0.00 0.00 0.00 0.00 0.00 0.00 0.00 0.00 0.00 0.00 0.00 0.00 0.00 0.00 0.00 0.00 0.00 0.00 0.00 0.00 0.00 0.00 0.00 0.00 0.00 0.00 0.01
0.67 0.58 0.50 0.50 0.61 0.48 0.40 0.33 0.55 0.53 0.33 0.29 0.73 0.71 0.62 0.54 0.83 0.58 0.39 0.52 0.81 0.51 0.54 0.33 0.43 0.39 0.40 0.35 0.49 0.48 0.39 0.42 0.52 0.37 0.25 0.22 0.37 0.69 0.34 0.13 0.11 0.06 0.11 0.23 0.08 0.88 0.05 0.08 0.02 0.02 0.01 0.01 0.01 0.01 0.01 0.00 0.00 0.00 0.00 0.00 0.00 0.00 0.00 0.00 0.00 0.00 0.00 0.00 0.00 0.00 0.00 0.00 0.00 0.00 0.00 0.00 0.00 0.00 0.00 0.00 0.00 0.00 0.00 0.00 0.00
0.55 0.50 0.44 0.47 0.54 0.53 0.74 0.47 0.74 0.57 0.57 0.49 0.54 0.48 0.54 0.53 0.42 0.46 0.50 0.49 0.53 0.82 0.62 0.70 0.54 0.47 0.57 0.53 0.36 0.54 0.41 0.66 0.51 0.49 0.30 0.15 0.18 0.20 0.24 0.20 0.11 0.13 0.09 0.19 0.22 0.28 0.18 0.04 0.40 0.05 0.03 0.02 0.07 0.01 0.01 0.00 0.00 0.00 0.00 0.00 0.00 0.00 0.00 0.00 0.00 0.00 0.00 0.00 0.00 0.00 0.00 0.00 0.00 0.00 0.00 0.00 0.00 0.00 0.00 0.00 0.00 0.00 0.00 0.00 0.00
0.36 0.43 0.42 0.46 0.39 0.40 0.36 0.45 0.22 0.30 0.34 0.45 0.33 0.57 0.35 0.50 0.62 0.27 0.52 0.27 0.67 0.79 0.52 0.47 0.43 0.55 0.45 0.50 0.62 0.58 0.51 0.34 0.39 0.55 0.36 0.24 0.16 0.08 0.13 0.16 0.08 0.04 0.05 0.04 0.06 0.23 0.23 0.09 0.09 0.06 0.10 0.07 0.02 0.09 0.04 0.00 0.00 0.00 0.00 0.00 0.00 0.00 0.00 0.00 0.00 0.00 0.00 0.00 0.00 0.00 0.00 0.00 0.00 0.00 0.00 0.00 0.00 0.00 0.00 0.00 0.00 0.00 0.00 0.00 0.00
0.34 0.37 0.44 0.38 0.33 0.27 0.34 0.46 0.42 0.35 0.76 0.36 0.46 0.29 0.22 0.36 0.31 0.29 0.30 0.42 0.73 0.87 0.65 0.83 0.81 0.47 0.63 0.52 0.42 0.47 0.47 0.33 0.49 0.32 0.34 0.33 0.39 0.38 0.30 0.22 0.15 0.16 0.26 0.23 0.10 0.08 0.07 0.08 0.13 0.13 0.01 0.02 0.03 0.02 0.03 0.00 0.00 0.01 0.00 0.00 0.00 0.00 0.00 0.00 0.00 0.00 0.00 0.00 0.00 0.00 0.00 0.00 0.00 0.00 0.00 0.00 0.00 0.00 0.00 0.00 0.00 0.00 0.00 0.00 0.00
0.26 0.31 0.40 0.29 0.36 0.36 0.37 0.28 0.33 0.44 0.35 0.32 0.22 0.43 0.51 0.46 0.35 0.37 0.29 0.44 0.74 0.79 0.68 0.51 0.69 0.66 0.51 0.64 0.38 0.34 0.37 0.40 0.50 0.31 0.35 0.26 0.20 0.33 0.11 0.14 0.07 0.09 0.27 0.11 0.01 0.05 0.10 0.08 0.09 0.07 0.03 0.01 0.01 0.05 0.02 0.01 0.01 0.01 0.00 0.00 0.00 0.00 0.00 0.00 0.00 0.00 0.00 0.00 0.00 0.00 0.00 0.00 0.00 0.00 0.00 0.00 0.00 0.00 0.00 0.00 0.00 0.00 0.00 0.00 0.00
0.56 0.36 0.23 0.35 0.43 0.28 0.30 0.22 0.31 0.46 0.43 0.42 0.41 0.32 0.41 0.55 0.63 0.48 0.25 0.25 0.50 0.54 0.55 0.66 1.04 0.81 0.61 0.50 0.60 0.61 0.80 0.42 0.31 0.25 0.12 0.26 0.23 0.11 0.22 0.19 0.14 0.17 0.23 0.10 0.13 0.13 0.05 0.05 0.04 0.03 0.05 0.06 0.48 0.23 0.04 0.04 0.06 0.02 0.00 0.00 0.00 0.00 0.00 0.00 0.00 0.00 0.00 0.00 0.00 0.00 0.00 0.00 0.00 0.00 0.00 0.00 0.00 0.00 0.00 0.00 0.00 0.00 0.00 0.00 0.00
0.47 0.31 0.43 0.29 0.30 0.38 0.42 0.32 0.48 0.35 0.38 0.40 0.57 0.29 0.32 0.66 0.76 0.36 0.50 0.47 0.37 0.58 0.63 0.62 0.54 0.64 0.61 0.61 0.62 0.70 0.65 0.57 0.25 0.18 0.29 0.27 0.23 0.07 0.07 0.09 0.24 0.20 0.15 0.14 0.35 0.21 0.13 0.02 0.06 0.14 0.30 0.55 0.13 0.12 0.39 0.12 0.06 0.00 0.00 0.00 0.00 0.00 0.00 0.00 0.00 0.00 0.00 0.00 0.00 0.00 0.00 0.00 0.00 0.00 0.00 0.00 0.00 0.00 0.00 0.00 0.00 0.00 0.00 0.00 0.00
0.69 0.83 0.72 0.49 0.45 0.40 0.30 0.36 0.51 0.85 0.34 0.34 0.26 0.54 0.48 0.35 0.48 0.32 0.42 0.50 0.50 0.40 0.38 0.72 0.51 0.52 0.67 0.70 0.60 0.66 0.78 0.60 0.41 0.30 0.23 0.25 0.35 0.22 0.17 0.16 0.20 0.22 0.24 0.21 0.22 0.37 0.33 0.39 0.53 0.41 0.49 0.26 0.31 0.17 0.07 0.16 0.51 0.32 0.01 0.00 0.00 0.00 0.00 0.00 0.00 0.00 0.00 0.00 0.00 0.00 0.00 0.00 0.00 0.00 0.00 0.00 0.00 0.00 0.00 0.00 0.00 0.00 0.00 0.00 0.00
0.76 0.81 0.73 0.56 0.50 0.31 0.34 0.91 0.92 0.72 0.57 0.44 0.32 0.26 0.29 0.48 0.45 0.62 0.34 0.34 0.36 0.41 0.61 0.43 0.60 0.72 0.66 0.46 0.64 1.46 0.95 0.66 0.58 0.56 0.69 0.57 0.38 0.18 0.14 0.27 0.44 0.46 0.25 0.29 0.34 0.36 0.41 0.45 0.45 0.33 0.21 0.19 0.08 0.40 0.79 0.42 0.08 0.03 0.01 0.00 0.00 0.00 0.00 0.00 0.00 0.00 0.00 0.00 0.00 0.00 0.00 0.00 0.00 0.00 0.00 0.00 0.00 0.00 0.00 0.00 0.00 0.00 0.00 0.00 0.00
0.98 0.54 0.52 0.62 0.33 0.29 0.28 0.54 0.65 0.58 0.45 0.46 0.53 0.63 0.60 0.59 0.32 0.27 0.59 0.49 0.26 0.36 0.44 0.39 0.28 0.34 0.40 0.54 0.48 0.78 0.63 0.62 0.73 0.72 0.99 0.93 0.58 0.27 0.12 0.22 0.50 0.29 0.16 0.44 0.54 0.55 0.15 0.14 0.57 0.52 0.24 0.06 0.05 0.05 0.04 0.04 0.03 0.02 0.00 0.00 0.00 0.00 0.00 0.00 0.00 0.00 0.00 0.00 0.00 0.00 0.00 0.00 0.00 0.00 0.00 0.00 0.00 0.00 0.00 0.00 0.00 0.00 0.00 0.00 0.00
0.57 0.45 0.38 0.39 0.42 0.44 0.34 0.33 0.92 0.73 0.84 0.43 0.38 0.42 0.38 0.31 0.35 0.32 0.69 0.78 0.43 0.36 0.37 0.43 0.41 0.36 0.37 0.36 0.42 0.38 0.16 0.35 0.39 0.33 0.32 0.32 0.26 0.37 0.50 0.64 0.40 0.30 0.37 0.27 0.28 0.30 0.36 0.23 0.35 0.24 0.16 0.09 0.07 0.04 0.02 0.03 0.00 0.02 0.05 0.08 0.00 0.00 0.00 0.00 0.00 0.00 0.00 0.00 0.00 0.00 0.00 0.00 0.00 0.00 0.00 0.00 0.00 0.00 0.00 0.00 0.00 0.00 0.00 0.00 0.00
0.44 0.50 0.45 0.46 0.32 1.12 0.58 0.49 0.43 0.41 0.24 0.17 0.22 0.23 0.20 0.18 0.19 0.33 0.78 0.79 0.20 0.29 0.31 0.66 0.34 0.36 0.26 0.63 0.94 0.52 0.44 0.49 1.11 0.20 0.36 0.27 0.17 0.14 0.18 0.22 0.35 0.26 0.25 0.22 0.13 1.16 0.45 0.46 2.06 3.14 1.31 0.09 0.01 0.02 0.01 0.06 0.03 0.04 0.01 0.01 0.03 0.01 0.00 0.00 0.00 0.00 0.00 0.00 0.00 0.00 0.00 0.00 0.00 0.00 0.00 0.00 0.00 0.00 0.00 0.00 0.00 0.00 0.00 0.00 0.00
0.97 0.68 0.45 0.26 0.52 0.71 0.68 0.47 0.48 0.50 0.48 0.63 0.22 0.11 0.06 0.04 0.06 0.48 0.67 0.46 0.21 0.36 0.37 0.45 0.65 0.42 0.78 1.07 1.10 0.50 0.42 0.45 0.35 1.12 1.05 0.66 0.35 0.15 0.28 0.12 0.11 0.13 0.18 0.81 0.28 0.26 0.15 0.72 0.62 0.60 1.35 0.48 0.14 0.05 0.02 0.00 0.00 0.03 0.02 0.01 0.00 0.00 0.00 0.00 0.00 0.00 0.00 0.00 0.00 0.00 0.00 0.00 0.00 0.00 0.00 0.00 0.00 0.00 0.00 0.00 0.00 0.00 0.00 0.00 0.00
0.90 0.59 0.80 0.35 0.40 0.78 0.50 0.78 0.66 0.99 1.15 0.71 0.41 0.28 0.22 0.21 0.22 0.35 0.51 0.60 0.42 0.50 0.56 0.98 0.58 0.74 0.55 1.04 0.67 0.72 0.51 0.27 0.30 0.36 0.25 0.40 0.46 0.23 0.37 0.23 0.10 0.16 0.22 0.19 0.37 0.16 0.19 0.39 0.32 1.05 0.19 0.12 0.16 0.32 0.10 0.14 0.03 0.08 0.03 0.01 0.00 0.00 0.00 0.00 0.00 0.00 0.00 0.00 0.00 0.00 0.00 0.00 0.00 0.00 0.00 0.00 0.00 0.00 0.00 0.00 0.00 0.00 0.00 0.00 0.00
0.90 0.76 0.61 0.53 0.62 0.66 0.48 0.28 0.40 0.72 1.25 0.57 0.36 0.19 0.12 0.10 0.11 0.23 0.60 0.61 0.59 0.54 0.50 0.73 0.89 1.03 1.61 0.69 0.56 0.49 0.52 0.43 0.60 0.51 0.63 0.47 0.49 0.67 0.45 0.47 0.53 0.32 0.55 0.33 0.63 0.08 0.21 0.30 0.46 0.17 0.17 0.06 0.09 0.27 0.29 0.30 0.45 0.12 0.14 0.02 0.00 0.00 0.00 0.00 0.01 0.00 0.00 0.00 0.00 0.00 0.00 0.00 0.00 0.00 0.00 0.02 0.03 0.00 0.00 0.00 0.00 0.00 0.00 0.00 0.00
1.02 0.76 0.60 0.51 0.47 0.56 0.53 0.49 0.60 0.71 0.47 0.36 0.16 0.47 0.35 0.31 0.39 0.40 0.71 0.58 0.67 0.50 0.72 1.20 0.60 0.37 1.11 0.62 0.93 0.53 0.49 0.43 0.57 0.41 0.39 0.32 0.35 0.38 0.58 0.83 1.09 0.77 0.72 0.60 0.43 0.39 0.14 0.22 0.30 0.31 0.74 0.55 0.31 0.28 0.64 0.26 0.62 0.20 0.19 0.18 0.04 0.02 0.01 0.00 0.00 0.00 0.00 0.01 0.07 0.00 0.02 0.04 0.01 0.00 0.03 0.04 0.05 0.05 0.16 0.05 0.00 0.00 0.00 0.00 0.01
0.50 0.51 0.41 0.51 0.42 0.35 0.37 0.28 0.27 1.17 1.20 0.52 0.36 0.24 0.18 0.34 0.48 0.42 0.44 0.57 0.65 0.53 1.27 0.84 0.77 0.59 1.30 0.91 0.63 0.48 0.42 0.38 0.33 0.31 0.42 0.30 0.32 0.36 0.39 0.71 0.76 0.43 0.35 0.26 0.19 0.19 0.55 0.59 0.44 0.67 0.15 0.70 0.12 0.06 0.21 0.14 0.40 0.29 0.14 0.10 0.19 0.29 0.06 0.02 0.02 0.00 0.13 0.03 0.01 0.00 0.00 0.19 0.19 0.03 0.40 0.17 0.04 0.11 0.02 0.08 0.07 0.03 0.04 0.05 0.04
0.50 0.83 0.34 0.34 0.18 0.53 0.27 0.26 0.24 0.32 0.24 0.19 0.09 0.23 0.12 0.12 0.27 0.26 0.20 0.32 0.41 0.72 0.66 0.46 1.12 1.10 0.57 0.58 0.87 0.68 0.82 0.87 0.31 0.31 0.41 0.32 0.94 0.96 0.69 0.97 0.46 0.37 0.31 0.25 0.24 0.15 0.22 0.15 0.10 0.18 0.05 0.04 0.05 0.04 0.04 0.08 0.47 0.10 0.19 0.18 0.18 0.17 0.55 0.21 0.12 0.08 0.05 0.04 0.09 0.06 0.03 0.04 0.25 0.11 0.14 0.36 0.19 0.20 0.56 0.35 0.36 0.09 0.30 0.48 0.50
0.81 0.70 0.92 0.38 0.39 0.38 0.63 0.47 0.26 0.45 0.71 0.59 0.13 0.14 0.14 0.17 0.20 0.21 0.56 0.37 0.35 0.28 0.57 0.51 0.56 0.50 0.65 0.44 0.30 1.02 0.63 0.50 0.47 0.29 0.31 0.43 0.65 0.65 0.48 0.28 0.41 0.45 0.38 0.36 0.98 0.51 0.33 0.36 0.29 0.61 0.34 0.06 0.03 0.04 0.12 0.28 0.43 0.37 0.38 0.78 0.45 0.34 0.25 0.21 0.29 0.41 0.21 0.30 0.35 0.37 0.19 0.07 0.15 0.17 0.20 0.18 0.17 0.06 0.10 0.39 0.59 0.42 0.14 0.19 0.12
1.01 0.93 0.89 0.68 0.69 0.46 0.55 0.59 0.41 0.31 0.33 0.28 0.17 0.25 0.31 0.48 0.56 0.66 0.80 0.70 0.31 0.64 0.69 0.54 0.62 0.38 0.48 0.42 0.28 0.28 0.56 0.30 0.45 0.36 0.38 0.72 0.89 0.84 0.67 0.45 0.77 0.49 0.37 0.46 0.63 0.77 1.00 1.03 1.08 0.74 1.42 0.84 1.48 0.94 1.17 0.21 0.30 0.29 0.18 0.30 0.43 0.35 0.37 0.29 0.23 0.30 0.40 0.37 0.28 0.45 0.57 0.07 0.19 0.28 0.62 0.73 0.21 0.10 0.28 0.08 0.16 0.24 0.17 0.11 0.03